TimeCDT,TemperatureF,Dew PointF,Humidity,Sea Level PressureIn,VisibilityMPH,Wind Direction,Wind SpeedMPH,Gust SpeedMPH,PrecipitationIn,Events,Conditions,WindDirDegrees,DateUTC
12:52 AM,73.0,69.1,87,30.05,10.0,Calm,Calm,-,N/A,,Clear,0,2013-08-01 05:52:00
1:52 AM,73.0,69.1,87,30.05,10.0,NNE,3.5,-,N/A,,Clear,30,2013-08-01 06:52:00
2:52 AM,72.0,68.0,87,30.06,10.0,NE,5.8,-,N/A,,Scattered Clouds,50,2013-08-01 07:52:00
3:52 AM,71.1,68.0,90,30.06,9.0,ENE,5.8,-,N/A,,Clear,70,2013-08-01 08:52:00
4:52 AM,71.1,68.0,90,30.06,9.0,ENE,5.8,-,N/A,,Clear,60,2013-08-01 09:52:00
5:52 AM,70.0,66.9,90,30.06,10.0,East,3.5,-,N/A,,Clear,100,2013-08-01 10:52:00
6:52 AM,70.0,66.9,90,30.09,10.0,Calm,Calm,-,N/A,,Clear,0,2013-08-01 11:52:00
7:52 AM,73.0,69.1,87,30.09,10.0,NE,4.6,-,N/A,,Clear,50,2013-08-01 12:52:00
8:52 AM,77.0,69.1,76,30.09,10.0,East,4.6,-,N/A,,Clear,90,2013-08-01 13:52:00
9:52 AM,81.0,68.0,65,30.09,10.0,East,6.9,-,N/A,,Clear,100,2013-08-01 14:52:00
10:52 AM,82.9,66.0,56,30.10,10.0,SE,6.9,-,N/A,,Clear,130,2013-08-01 15:52:00
11:52 AM,84.9,66.0,53,30.09,10.0,SE,8.1,-,N/A,,Clear,130,2013-08-01 16:52:00
12:52 PM,86.0,66.9,53,30.07,10.0,East,6.9,-,N/A,,Clear,90,2013-08-01 17:52:00
1:52 PM,88.0,66.0,48,30.05,10.0,Variable,5.8,-,N/A,,Clear,0,2013-08-01 18:52:00
2:52 PM,89.1,66.0,46,30.04,10.0,Variable,3.5,-,N/A,,Clear,0,2013-08-01 19:52:00
3:52 PM,89.1,66.0,46,30.02,10.0,Calm,Calm,-,N/A,,Clear,0,2013-08-01 20:52:00
4:52 PM,89.1,64.9,45,29.99,10.0,ESE,8.1,-,N/A,,Clear,110,2013-08-01 21:52:00
5:52 PM,89.1,68.0,50,29.97,10.0,SSE,10.4,-,N/A,,Clear,150,2013-08-01 22:52:00
6:52 PM,88.0,66.0,48,29.96,10.0,ESE,6.9,-,N/A,,Clear,110,2013-08-01 23:52:00
7:52 PM,84.9,70.0,61,29.96,10.0,SE,4.6,-,N/A,,Clear,130,2013-08-02 00:52:00
8:52 PM,80.1,72.0,76,29.96,10.0,ESE,3.5,-,N/A,,Clear,110,2013-08-02 01:52:00
9:52 PM,77.0,71.1,82,29.95,10.0,ESE,5.8,-,N/A,,Clear,120,2013-08-02 02:52:00
10:52 PM,77.0,69.1,76,29.95,10.0,SE,5.8,-,N/A,,Clear,130,2013-08-02 03:52:00
11:52 PM,77.0,68.0,74,29.92,10.0,SSE,6.9,-,N/A,,Clear,150,2013-08-02 04:52:00